Regional Weather Roundup
Issued by NWS Wakefield, VA

Home | Current Version | Previous Version | Graphics & Text | Print | Product List | Glossary On
Versions: 1 2 3 4 5 6 7 8 9 10 11 12 13 14 15 16 17 18 19 20 21 22 23 24 25 26 27 28 29 30 31 32 33 34 35 36 37 38 39 40 41 42 43 44 45 46 47 48 49
951
ASUS41 KAKQ 100814
RWRAKQ

REGIONAL WEATHER ROUNDUP
NATIONAL WEATHER SERVICE WAKEFIELD VA
300 AM EST WED FEB 10 2016

Note: "fair" indicates few or no clouds below 12,000 feet with no
significant weather and/or obstructions to visibility. * = Denotes
station may not report precipitation (e.g., rain,snow,etc.),
thunder or fog.

VAZ042-051-052>054-056-100900-
NORTHERN VIRGINIA

CITY           SKY/WX    TMP DP  RH WIND       PRES   REMARKS
WASH NATIONAL  LGT SNOW  29  24  82 W7        29.73R
DULLES         CLOUDY    29  19  66 W10       29.71R WCI  20
FORT BELVOIR   FLURRIES  28  23  80 W6        29.72S
QUANTICO       CLOUDY    31  23  72 NW13      29.75R WCI  21
FREDERICKSBRG* CLOUDY    30  25  81 W8        29.73S
STAFFORD*      FLURRIES  30  22  70 NW6       29.77R
WARRENTON      CLOUDY    31  23  72 CALM      29.71S
CULPEPER*      CLOUDY    29  19  64 CALM      29.72S
MANASSAS*      CLOUDY    30  23  74 W8        29.72S
LEESBURG*      CLOUDY    30  27  86 SW3       29.70S
WINCHESTER     CLOUDY    30  18  59 W12G22    29.69R WCI  21
FRONT ROYAL*   CLOUDY    30  14  51 W6        29.69S
LURAY*         CLOUDY    28  18  64 SW6       29.71R
$$

VAZ048-049-060>072-079>083-100900-
CENTRAL AND SOUTH CENTRAL VIRGINIA

CITY           SKY/WX    TMP DP  RH WIND       PRES   REMARKS
RICHMOND       LGT SNOW  28  23  81 W10       29.74R WCI  19
CHESTERFIELD*  CLOUDY    30   7  37 W8        29.75R
PETERSBURG*    MOCLDY    30  11  46 W9        29.76R
HANOVER        LGT SNOW  28  25  88 W7        29.75R FOG
TAPPAHANNOCK*  LGT SNOW  32  31  95 SW3       29.73R
QUINTON*       CLOUDY    30  23  75 W10       29.73S HAZE    WCI  21
CHARLOTTSVILLE CLOUDY    30  13  49 VRB3      29.71S
GORDONSVILLE*  CLOUDY    30  17  58 SW3       29.72S
ORANGE*        MOCLDY    30  21  69 SW6       29.73S
LOUISA*        CLOUDY    28  21  74 W3        29.71S
BUMPASS*       CLOUDY    30  22  71 W3        29.72S
FARMVILLE*     FAIR      28  14  56 W3        29.75R
CREWE*         FAIR      26  14  59 W5        29.75R
FORT PICKETT*  FAIR      26  12  57 W9        29.75S
CHASE CITY*    FAIR      26  10  52 W6        29.78S
CLARKSVILLE*   FAIR      27  12  54 W6        29.79S
SOUTH HILL*    FAIR      26  12  55 W5        29.83S
LAWRENCEVILLE* FAIR      27  12  54 W7        29.77S
EMPORIA*       FAIR      28  12  50 SW8       29.80R
$$

VAZ088>098-100900-
SOUTHEAST VIRGINIA

CITY           SKY/WX    TMP DP  RH WIND       PRES   REMARKS
NORFOLK        FAIR      32  14  47 W12       29.74R WCI  23
VIRGINIA BEACH FAIR      34  15  46 W17       29.74R WCI  23
NORFOLK NAVAL  FAIR      32  15  49 W15G23    29.76R WCI  22
WEST POINT*    CLOUDY    30  27  88 W7        29.76R
SALUDA*        CLOUDY    30  26  85 W8        29.72S
NEWPORT NEWS   FAIR      30  16  56 W12       29.74S WCI  20
LANGLEY AFB    FAIR      30  17  56 W10G21    29.73S WCI  21
FORT EUSTIS    CLOUDY    30  14  50 W9        29.73R
WILLIAMSBURG*  MOCLDY    34  19  55 W9        29.75S
HR EXEC AP*    FAIR      30  16  55 W9G17     29.78R
FRANKLIN*      FAIR      29  13  50 W8        29.78R
US460-WAKEFLD  FAIR      29  14  53 SW8       29.76S
$$

VAZ020-022-025-037-045-100900-
WEST CENTRAL AND SOUTHWEST VIRGINIA

CITY           SKY/WX    TMP DP  RH WIND       PRES   REMARKS
STAUNTON*      MOCLDY    29  14  54 CALM      29.73R
WAYNESBORO*    FAIR      23  10  58 W3        29.70S
HOT SPRINGS VA FLURRIES  14  14 100 W18G28    29.55S WCI  -3
LYNCHBURG      FAIR      24  11  57 CALM      29.76S
DANVILLE       FAIR      24  14  65 W8        29.81S
SOUTH BOSTON*  FAIR      25  11  55 W5        29.80S
MARTINSVILLE   FAIR      22  11  63 NW3       29.83S
ROANOKE        MOCLDY    25  12  58 NW23G32   29.79F WCI  10
BLACKSBURG     CLOUDY    21  14  76 W13G21    29.77S WCI   8
DUBLIN*        CLOUDY    22  15  73 W13       29.77S WCI  10
MARION*        FLURRIES  19  13  77 W20       29.77F WCI   3
HILLSVILLE*    FLURRIES  17  12  81 W14G25    29.70R WCI   3
RICHLANDS*     FLURRIES  17  12  82 W3        29.77F
WISE*          LGT SNOW  18  10  73 W9        29.80S
ABINGDON*      FLURRIES  22  15  74 W13       29.83S WCI  10
$$

MDZ021>025-VAZ099-100-100900-
SOUTHERN MARYLAND AND THE DELMARVA PENINSULA

CITY           SKY/WX    TMP DP  RH WIND       PRES   REMARKS
PATUXENT RIVER CLOUDY    32  21  64 NW16      29.70S WCI  21
BAY BRIDGE APT   N/A     32  23  69 W13G21    29.70R WCI  22
LEONARDTOWN    CLOUDY    32  21  64 W12G20    29.72R WCI  23
DOVER          CLOUDY    32  27  82 W12       29.63S WCI  23
GEORGETOWN     CLOUDY    32  26  78 W8        29.66R
EASTON         CLOUDY    32  25  76 NW10      29.71F WCI  24
CAMBRIDGE      CLOUDY    32  23  69 W12G18    29.68R WCI  23
SALISBURY      CLOUDY    32  24  72 W9        29.67R
OCEAN CITY     CLOUDY    32  27  81 W5        29.67R
WALLOPS ISLAND CLOUDY    33  27  78 NW10      29.68S WCI  25
ACCOMACK*      CLOUDY    32  27  80 NW10      29.70R WCI  24
$$

NCZ012>017-030>032-100900-
NORTH CENTRAL AND EASTERN NORTH CAROLINA

CITY           SKY/WX    TMP DP  RH WIND       PRES   REMARKS
ROANOKE RAPIDS FAIR      30  14  51 W6        29.80S
RALEIGH        CLEAR     26  13  57 W3        29.84R
ELIZABETH CITY MOCLDY    33  19  56 W16G23    29.78R WCI  23
AHOSKIE*       CLEAR     28  14  56 CALM      29.80S
EDENTON*       PTCLDY    34  19  54 NW13G20   29.80R WCI  25
CURRITUCK*     CLOUDY    34  20  56 W8G18     29.77R
KILL DEVIL HLS PTCLDY    36  20  52 W15G26    29.75R
MANTEO         PTCLDY    35  21  56 W10G20    29.78R
CAPE HATTERAS  CLOUDY    39  21  48 W14G30    29.78F
TARBORO*       FAIR      30  17  58 W7        29.84R
GOLDSBORO      CLEAR     28  16  59 W9        29.84R
WASHINGTON     CLEAR     31  16  53 W8        29.83R
GREENVILLE     CLEAR     32  18  55 W6        29.86S
NEW BERN       CLOUDY    33  14  45 W13G22    29.85R WCI  24
WILMINGTON     CLOUDY    37  16  42 W12G22    29.87S
$$

VAZ048-100900-
ELSEWHERE

CITY           SKY/WX    TMP DP  RH WIND       PRES   REMARKS
HARRISBURG PA  CLOUDY    30  24  78 W9        29.63S
BALTIMORE      LGT SNOW  28  23  81 W15       29.68R WCI  16
ANNAPOLIS      CLOUDY    31  23  72 W12G20    29.69R WCI  22
ANDREWS AFB    FLURRIES  29  23  79 W16G22    29.69S WCI  17
PHILADELPHIA   CLOUDY    33  27  78 W8        29.63S
HENDERSON NC   CLEAR     26  11  55 SW6       29.80S
GREENSBORO     CLEAR     24  11  57 W12       29.81R WCI  13
ROCKY MOUNT    PTCLDY    28  15  58 SW6       29.83R
$$

VAZ100-100900-
MARINE

STATION/POSITION TIME  TEMP    WIND        PRES    WAVE   SWELL
                       AIR SEA DIR/SP/G            HT/PER HT/PER
                 (UTC) (F)     (DEG/KT/KT) (MB)    (FT/S) (FT/S)
BRANDYWINE LGT   0700   34     310/ 19/ 24 1003.4F
CAPE MAY NJ      0700   35 42  300/ 16/ 21 1003.1F
LEWES DE         0700   35 41  290/ 14/ 16 1003.7F
15NM E FENWICK I 0750   35 43              1003.9R   6/13
OCEAN-CITY-INLET 0700   34 41  300/  7/  8 1003.7R
WACHAPREAGUE VA  0700   34 42  260/  6/  8 1005.4R
GOOSES REEF MD   0800   32 40  310/ 19/ 25 1006.5S   2/ 3
COVE POINT MD    0700   31     340/ 18/ 22 1006.1R
SOLOMONS ISLAND  0700   33 40  300/  8/ 13   N/A
BISHOPS HEAD MD  0700   35 40  300/ 15/ 18 1004.4R
PINEY POINT MD   0700          340/ 17/ 19   N/A
POTOMAC MD       0800   33 40  320/ 12/ 17 1004.9R   2/ 3
CAMBRIDGE MD     0700   33 40  290/ 11/ 17 1004.3R
LEWISETTA VA     0700   34 41  310/  8/  9 1005.5R
RAPPAHANNOCK LGT 0700          250/ 19/ 21 1005.8R
STINGRAY PT      0800   33 41  270/ 12/ 16 1006.1R   1/ 2
YORK RVR RNG VA  0700   34     280/ 22/ 25 1005.3R
YORKTOWN VA      0700   32 43  240/ 12/ 17 1006.4R
JAMESTOWN VA     0800   30 43  250/ 10/ 14   N/A     1
DOMINION TERM VA 0700   33     280/ 18/ 23 1006.7R
KIPTOPEKE VA     0700      43  280/ 20/ 24   N/A
CHES BAY BRIDGE  0700   34 42  240/ 23/ 25 1006.3R
CAPE HENRY VA    0700   33     250/ 11/ 17   N/A
CHESAPEAKE LGHT  0700   36     270/ 23/ 25 1006.8R
WILLOUBY STN VA  0700   33     270/ 23/ 25   N/A
CAPE HENRY BUOY  0758      44                N/A     4/13   2/13
1ST LANDING BUOY 0800      43                N/A     2/ 6
CAPE CHARLES BUO 0756      43                N/A     5/14   5/14
OFFSHORE WE BUOY 0751      45                N/A     6/14   5/14
64NM E OF VA BCH 0750   41 50  260/ 21/ 25 1005.8R   9/14   7/14
DUCK PIER NC     0700   37     270/ 18/ 21 1006.8S
44100 DUCK FRF   0754      47                N/A     5/14   3/14
44056 DUCK FRF   0711      44                N/A     4/14   3/14
OREGON INLET NC  0700   38 46  250/ 12/ 16 1007.9R
HATTERAS NC      0700   41 52  260/ 19/ 25 1008.2R
DIAMOND SHLS NC  0750   45 73  290/ 23/ 31 1007.6F   9/15   5/15
$$




USA.gov is the U.S. government's official web portal to all federal, state and local government web resources and services.